パンスターズ彗星

C/2015 ER61 ( PanSTARRS )

English version
Home page
Updated on January 12, 2018

---------------------------------------------------------------------

・ プロフィール

発見日 2015年3月14日
発見光度 20.7等
発見者 Pan-STARRS 1 telescope (Haleakala)

・ 写真集

・ 軌道要素

Epoch 2017 May 7.0 TT = JDT 2457880.5
T 2017 May  9.94369 TT                                  MPCW
q   1.0421357            (2000.0)            P               Q
z  +0.0025777      Peri.   68.19283     +0.54600772     +0.83284221
 +/-0.0000001      Node   235.22116     -0.80369342     +0.49009522
e   0.9973137      Incl.    6.34877     -0.23654271     +0.25725575
From 2134 observations 2015 Jan. 21-2017 Nov. 2, mean residual 0".5.

・ 星図

・ 光度変化

        m1 = 3.0 + 5 logΔ + 15.0 log r  [    ,-390]  (              〜2016年 4月14日)
        m1 = 6.5 + 5 logΔ + 10.0 log r  [-390,   0]  (2016年 4月14日〜2017年 5月 9日)
        m1 = 6.5 + 5 logΔ + 15.0 log r  [   0,    ]  (2017年 5月 9日〜              )

---------------------------------------------------------------------

軌道要素はM.P.E.C. 2017-V13に掲載されたものです。
B核の軌道要素はM.P.E.C. 2017-V13に掲載されたものです。
星図はステラナビゲータ Ver.10 (アストロアーツ) で作成したものです。
光度グラフはComet for Windowsで作成したものです。

---------------------------------------------------------------------

Copyright(C) Seiichi Yoshida (comet@aerith.net). All rights reserved.